Welcome to the New NWS' Forecast!
Most changes are behind the scenes, but click here for differences you might notice.
Latest weather observations around

Vaiden Fld Airport (KA08)

Using English Units (Switch to International System of Units)
Date/ Time (CDT) Wind (mph) Vis. (mi) Weather Sky Cond. Temp (°F) Rel. Humidity Wind Chill (°F) Heat Index (°F) Pressure Precip. (in)
Air Dwpt 6 hour Altimeter (inHg) Sea level (inHg) 1 hr 3 hr 6 hr
Max Min
Oct 21 13:55 NNE 8 10 Clear CLR 63 29     27%     30.22        
Oct 21 13:35 N 6 10 Clear CLR 64 31     29%     30.23        
Oct 21 13:15 N 6 10 Clear CLR 64 30     28%     30.25        
Oct 21 12:55 ENE 9 10 Clear CLR 62 29     29%     30.26        
Oct 21 12:35 NNE 5 10 Clear CLR 61 31     31%     30.27        
Oct 21 12:15 ENE 7 10 Clear CLR 63 32     32%     30.28        
Oct 21 11:55 NNE 6 10 Clear CLR 60 31     34%     30.28        
Oct 21 11:35 NE 8 10 Clear CLR 60 32     35%     30.29        
Oct 21 11:15 NE 5 10 Clear CLR 58 32     37%     30.3        
Oct 21 10:55 NNE 6 10 Clear CLR 56 33     41%     30.3        
Oct 21 10:35 N 8 10 Clear CLR 54 32     43%     30.3        
Oct 21 10:15 ENE 6 10 Clear CLR 54 32     44%     30.3        
Oct 21 09:55 NE 8 10 Clear CLR 53 32     45%     30.3        
Oct 21 09:35 NNE 7 10 Clear CLR 52 33     47%     30.29        
Oct 21 09:15 NE 9 10 Clear CLR 50 32     50%     30.29        
Oct 21 08:55 NNE 8 10 Clear CLR 50 33     51%     30.29        
Oct 21 08:35 N 8 10 Clear CLR 48 32     53% 45   30.28        
Oct 21 08:15 N 13 10 Clear CLR 48 33     57% 43   30.27        
Oct 21 07:55 NNW 7 10 Clear CLR 47 35     61% 44   30.27        
Oct 21 07:35 N 8 10 Clear CLR 46 35     64% 42   30.26        
Oct 21 07:15 N 7 10 Clear CLR 45 36     69% 42   30.25        
Oct 21 06:55 NNW 7 10 Clear CLR 46 38     74% 42   30.24        
Oct 21 06:35 N 7 10 Clear CLR 46 39     77% 42   30.22        
Oct 21 06:15 N 7 10 Clear CLR 47 40     74% 44   30.22        
Oct 21 05:55 N 7 10 Clear CLR 48 40     72% 45   30.21        
Oct 21 05:35 N 6 10 Clear CLR 48 42     78% 46   30.2        
Oct 21 05:15 N 7 10 Clear CLR 49 43     80% 46   30.2        
Oct 21 04:55 N 8 10 Clear CLR 49 44     84% 46   30.19        
Oct 21 04:35 N 8 10 Clear CLR 49 45     86% 46   30.18        
Oct 21 04:15 N 8 10 Clear CLR 49 47     90% 46   30.17        
Oct 21 03:55 N 8 10 Clear CLR 49 49     99% 46   30.17        
Oct 21 03:35 NNW 8 10 Clear CLR 49 49     100% 46   30.17        
Oct 21 03:15 NNW 7 10 Clear CLR 50 50     100% 47   30.17        
Oct 21 02:55 NNW 6 10 Clear CLR 50 50     100%     30.16        
Oct 21 02:35 NW 7 10 Clear CLR 50 50     100%     30.15        
Oct 21 02:15 NW 7 10 Clear CLR 51 51     100%     30.15        
Oct 21 01:55   10 Clear CLR 51 51     100%     30.15        
Oct 21 01:35 NW 6 10 Clear CLR 51 51     100%     30.15        
Oct 21 01:15 NNW 5 10 Clear CLR 51 51     100%     30.15        
Oct 21 00:55 NW 5 10 Clear CLR 52 52     100%     30.16        
Oct 21 00:35 NW 5 10 Clear CLR 53 53     100%     30.16        
Oct 21 00:15 NW 5 10 Clear CLR 53 53     100%     30.16        
Oct 20 23:55 NNW 5 10 Clear CLR 54 54     100%     30.16        
Oct 20 23:35 NNW 6 10 Clear CLR 54 54     100%     30.16        
Oct 20 23:15 NNW 6 10 Clear CLR 55 55     100%     30.17        
Oct 20 22:55 NW 5 10 Clear CLR 55 55     100%     30.17        
Oct 20 22:35 NW 7 10 Clear CLR 55 55     100%     30.17        
Oct 20 22:15 NNW 5 10 Clear CLR 55 55     100%     30.16        
Oct 20 21:55 NNW 6 10 Clear CLR 55 55     100%     30.16        
Oct 20 21:35 NNW 6 10 Clear CLR 56 56     99%     30.15        
Oct 20 21:15 NW 6 10 Clear CLR 56 56     98%     30.15        
Oct 20 20:55 NW 5 10 Clear CLR 57 56     96%     30.14        
Oct 20 20:35 NW 3 10 Clear CLR 57 56     94%     30.13        
Oct 20 20:15 NW 5 10 Clear CLR 58 56     93%     30.13        
Oct 20 19:55 NW 5 10 Clear CLR 59 56     91%     30.12        
Oct 20 19:35 NNW 7 10 Clear CLR 60 57     91%     30.12        
Oct 20 19:15 NNW 7 10 Clear CLR 61 57     88%     30.11        
Oct 20 18:55 NNW 7 10 Partly Cloudy SCT024 SCT120 61 57     87%     30.1        
Oct 20 18:35 NNW 9 10 Mostly Cloudy SCT024 BKN120 62 58     85%     30.09        
Oct 20 18:15 NNW 8 10 Mostly Cloudy SCT015 SCT024 BKN120 63 58     84%     30.09        
Oct 20 17:55 NW 13 10 Mostly Cloudy SCT015 BKN024 64 58     83%     30.08        
Oct 20 17:35 NW 15 10 Cloudy BKN015 OVC024 65 59     80%     30.07        
Oct 20 17:15 NW 13 10 Cloudy SCT015 OVC024 66 59     80%     30.06        
Oct 20 16:55 NNW 15 10 Cloudy SCT017 OVC022 66 60     80%     30.05        
Oct 20 16:35 NW 14 10 Cloudy BKN015 OVC022 67 61     81%     30.04        
Oct 20 16:15 NW 11 10 Cloudy OVC013 66 61     82%     30.04        
Oct 20 15:55 N 9 10 Cloudy OVC017 67 60     80%     30.04        
Oct 20 15:35 N 11 10 Cloudy OVC019 68 61     78%     30.04        
Oct 20 15:15 NNW 10 10 Cloudy OVC023 68 62     80%     30.03        
Oct 20 14:55   10 Cloudy OVC023 71 61     72%   71 30.04        
Oct 20 14:35 NW 14 10 Mostly Cloudy BKN023 BKN027 73 61     66%   73 30.03        
Oct 20 14:15 NW 10 10 Mostly Cloudy SCT023 BKN060 74 61     64%   74 30.03        
Oct 20 13:55 NW 7 10 Cloudy BKN060 OVC090 74 61     63%   74 30.04        
Oct 20 13:35 WNW 6 10 Mostly Cloudy SCT050 BKN090 75 62     64%   75 30.04        
Oct 20 13:15 WNW 5 10 Cloudy BKN075 OVC090 71 61     70%   71 30.06        
Oct 20 12:55 NW 9 10 Cloudy OVC075 71 60     69%   71 30.07        
Oct 20 12:35 N 6 10 Cloudy SCT018 BKN075 OVC100 71 62     71%   71 30.07        
Oct 20 12:15 NW 11 10 Cloudy SCT018 BKN025 OVC090 70 61     74%     30.08        
Oct 20 11:55 NW 11 10 Cloudy OVC023 70 61     74%     30.09        
Oct 20 11:35 NNW 13 10 Cloudy OVC021 69 61     75%     30.09        
Oct 20 11:15 NW 15 10 Cloudy BKN021 BKN033 OVC100 71 61     73%   71 30.1        
Oct 20 10:55 NW 13 10 Mostly Cloudy SCT029 BKN034 BKN100 71 62     71%   71 30.09        
Oct 20 10:35 NNW 13 10 Cloudy BKN029 BKN037 OVC044 69 63     80%     30.09        
Oct 20 10:15 NW 14 10 Light Rain BKN027 BKN037 OVC050 70 63     79%     30.09        
Oct 20 09:55   10 Mostly Cloudy BKN025 BKN041 BKN048 71 65     80%   72 30.09        
Oct 20 09:35 NNW 13 10 Cloudy SCT015 OVC021 71 69     93%   72 30.08        
Oct 20 09:15 NW 11 7 Light Rain BKN007 OVC014 71 71     98%   72 30.07        
Oct 20 08:55   5 Fog/Mist OVC007 71 71     99%   73 30.06        
Oct 20 08:35 W 8 7 Cloudy OVC007 73 73     100%   75 30.05        
Oct 20 08:15 W 6 7 Cloudy OVC007 73 73     100%   75 30.04        
Oct 20 07:55 W 6 7 Cloudy OVC005 72 72     100%   74 30.04        
Oct 20 07:35 W 5 7 Cloudy OVC005 72 72     100%   74 30.03        
Oct 20 07:15 W 6 7 Cloudy OVC005 72 72     100%   74 30.03        
Oct 20 06:55 WSW 5 10 Cloudy OVC005 72 72     100%   74 30.03        
Oct 20 06:35 W 5 10 Cloudy OVC005 72 72     100%   74 30.02        
Oct 20 06:15 WSW 5 10 Cloudy OVC005 72 72     100%   74 30.03        
Oct 20 05:55 WSW 5 7 Cloudy OVC003 72 72     100%   74 30.03        
Oct 20 05:35 WSW 6 7 Cloudy OVC003 72 72     100%   73 30.03        
Oct 20 05:15 W 5 7 Cloudy OVC003 72 72     100%   73 30.03        
Oct 20 04:55 WSW 5 5 Fog/Mist OVC003 72 72     100%   73 30.03        
Oct 20 04:35 W 5 4 Fog/Mist OVC003 71 71     100%   73 30.04        
Oct 20 04:15 SW 3 1 Fog/Mist OVC003 71 71     100%   72 30.03        
Oct 20 03:55 SSW 6 1.5 Fog/Mist OVC003 70 70     100%     30.03        
Oct 20 03:35 S 3 10 Cloudy OVC003 68 67     95%     30.03        
Oct 20 03:15 SSW 3 10 Cloudy OVC007 67 66     96%     30.04        
Oct 20 02:55 S 3 10 Mostly Cloudy BKN011 66 64     94%     30.04        
Oct 20 02:35 Calm 10 Partly Cloudy SCT013 65 63     93%     30.05        
Oct 20 02:15 W 7 10 Clear CLR 66 65     98%     30.06        
Oct 20 01:55 Calm 10 Partly Cloudy SCT011 66 63     90%     30.07        
Oct 20 01:35 Calm 10 Partly Cloudy SCT044 66 63     92%     30.07        
Oct 20 01:15 Calm 10 Partly Cloudy SCT044 66 62     89%     30.08        
Oct 20 00:55 Calm 10 Clear CLR 66 64     93%     30.08        
Oct 20 00:35 SW 6 10 Mostly Cloudy BKN039 BKN047 67 63     87%     30.09        
Oct 20 00:15 Calm 10 Mostly Cloudy BKN042 BKN049 67 64     90%     30.09        
Oct 19 23:50 Calm 10 Clear CLR 67 62     85%     30.1        
Oct 19 23:35 SSW 6 10 Clear CLR 67 62     83%     30.1        
Oct 19 23:15 W 3 10 Clear CLR 68 62     83%     30.11        
Oct 19 22:55 SSW 8 10 Clear CLR 68 63     84%     30.11        
Oct 19 22:35 SW 3 10 Clear CLR 68 62     81%     30.11        
Oct 19 22:15 SSW 7 10 Clear CLR 68 62     81%     30.11        
Oct 19 21:55 SSW 7 10 Clear CLR 69 63     81%     30.11        
Oct 19 21:35 SSW 8 10 Clear CLR 69 63     81%     30.12        
Oct 19 21:15 SSW 5 10 Clear CLR 70 63     78%     30.11        
Oct 19 20:55 Calm 10 Clear CLR 70 63     78%     30.11        
Oct 19 20:35 Calm 10 Clear CLR 70 63     78%   71 30.11        
Oct 19 20:15 Calm 10 Clear CLR 71 64     79%   71 30.12        
Oct 19 19:55 Calm 10 Clear CLR 71 66     83%   72 30.12        
Oct 19 19:35 Calm 10 Clear CLR 72 67     84%   73 30.11        
Oct 19 19:15 Calm 10 Clear CLR 74 67     80%   75 30.11        
Oct 19 18:55 Calm 10 Clear CLR 74 63     68%   74 30.11        
Oct 19 18:35 Calm 10 Clear CLR 75 64     68%   76 30.1        
Oct 19 18:15 Calm 10 Clear CLR 77 67     72%   78 30.1        
Oct 19 17:55 Calm 10 Clear CLR 78 67     70%   79 30.1        
Oct 19 17:35 Calm 10 Partly Cloudy SCT035 80 67     64%   82 30.11        
Oct 19 17:15 Calm 10 Clear CLR 82 66     60%   84 30.11        
Oct 19 16:55 Calm 10 Clear CLR 83 67     58%   86 30.11        
Oct 19 16:35   10 Partly Cloudy SCT037 83 66     58%   85 30.11        
Oct 19 16:15 Calm 10 Partly Cloudy SCT037 85 67     55%   87 30.12        
Oct 19 15:55 WSW 3 10 Partly Cloudy SCT037 84 66     54%   86 30.12        
Oct 19 15:35 Calm 10 Partly Cloudy SCT037 SCT046 86 66     53%   88 30.12        
Oct 19 15:15 Calm 10 Mostly Cloudy BKN035 BKN047 84 66     56%   86 30.13        
Oct 19 14:55 Calm 10 Partly Cloudy SCT031 86 66     52%   88 30.13        
Oct 19 14:35 Calm 10 Partly Cloudy SCT033 86 66     51%   88 30.14        
Oct 19 14:15 Calm 10 Clear CLR 85 66     54%   88 30.15        
Oct 19 13:55 W 3 10 Clear CLR 85 67     56%   88 30.16        
Oct 19 13:35 SW 6 10 Clear CLR 82 66     57%   85 30.17        
Oct 19 13:15 WSW 5 10 Clear CLR 81 65     58%   83 30.18        
Oct 19 12:55 WSW 5 10 Clear CLR 82 66     58%   84 30.2        
Oct 19 12:35 S 7 10 Clear CLR 81 66     61%   83 30.21        
Oct 19 12:15 SE 6 10 Partly Cloudy SCT014 79 65     62%   80 30.22        
Oct 19 11:55 S 6 10 Mostly Cloudy BKN014 77 65     65%   78 30.23        
Oct 19 11:35 S 5 10 Cloudy OVC012 75 65     73%   75 30.24        
Oct 19 11:15 Calm 10 Cloudy OVC010 72 63     74%   73 30.25        
Oct 19 10:55 SSE 6 10 Cloudy OVC010 70 64     80%     30.25        
Oct 19 10:35 S 8 10 Cloudy OVC010 69 62     78%     30.25        
Oct 19 10:15 SSE 7 10 Cloudy OVC010 68 61     78%     30.25        
Oct 19 09:55 SSE 7 10 Cloudy OVC010 67 59     76%     30.26        
Oct 19 09:35 SE 6 10 Cloudy OVC010 66 59     78%     30.26        
Oct 19 09:15 SE 3 10 Cloudy OVC010 65 58     78%     30.26        
Oct 19 08:55 SE 3 10 Cloudy OVC010 64 56     77%     30.26        
Oct 19 08:35 ESE 3 10 Cloudy OVC012 63 56     78%     30.25        
Oct 19 08:15 Calm 10 Mostly Cloudy BKN012 62 56     81%     30.25        
Oct 19 07:55 Calm 10 Clear CLR 60 56     86%     30.24        
Oct 19 07:35 Calm 10 Clear CLR 58 54     86%     30.24        
Oct 19 07:15 Calm 10 Clear CLR 56 51     83%     30.23        
Oct 19 06:55 Calm 10 Clear CLR 56 51     83%     30.24        
Oct 19 06:35 Calm 10 Clear CLR 56 51     82%     30.23        
Oct 19 06:15 Calm 10 Clear CLR 56 50     82%     30.24        
Oct 19 05:55 Calm 10 Clear CLR 56 51     83%     30.24        
Oct 19 05:35 Calm 10 Clear CLR 56 51     84%     30.23        
Oct 19 05:15 Calm 10 Clear CLR 56 50     82%     30.23        
Oct 19 04:55 Calm 10 Clear CLR 56 51     83%     30.23        
Oct 19 04:35 Calm 10 Clear CLR 56 51     82%     30.23        
Oct 19 04:15 Calm 10 Clear CLR 56 51     82%     30.23        
Oct 19 03:55 Calm 10 Clear CLR 56 51     82%     30.23        
Oct 19 03:35 Calm 10 Clear   56 51     82%     30.23        
Oct 19 03:15 Calm 10 Clear   56 51     80%     30.23        
Oct 19 02:55 Calm 10 Clear   57 51     81%     30.24        
Oct 19 02:35 Calm 10 Clear CLR 57 51     81%     30.24        
Oct 19 02:15 Calm 10 Clear CLR 57 51     80%     30.25        
Oct 19 01:55 Calm 10 Clear CLR 57 51     80%     30.25        
Oct 19 01:35 Calm 10 Clear CLR 57 51     81%     30.25        
Oct 19 01:10 Calm 10 Clear CLR 57 49     75%     30.25        
Oct 19 00:55 Calm 10 Clear CLR 57 50     77%     30.26        
Oct 19 00:35 Calm 10 Clear CLR 57 49     75%     30.26        
Oct 19 00:15 Calm 10 Clear CLR 57 49     73%     30.27        
Oct 18 23:55 Calm 10 Clear CLR 58 50     74%     30.27        
Oct 18 23:35 Calm 10 Clear CLR 58 50     74%     30.27        
Oct 18 23:15 Calm 10 Clear CLR 59 50     73%     30.28        
Oct 18 22:55 Calm 10 Clear CLR 59 50     72%     30.28        
Oct 18 22:35 Calm 10 Clear CLR 59 50     73%     30.29        
Oct 18 22:15 Calm 10 Clear CLR 59 51     73%     30.29        
Oct 18 21:55 Calm 10 Clear CLR 59 49     69%     30.29        
Oct 18 21:35 Calm 10 Clear CLR 60 49     67%     30.29        
Oct 18 21:15 Calm 10 Clear CLR 62 50     66%     30.29        
Oct 18 20:55 NW 6 10 Clear CLR 62 50     65%     30.29        
Oct 18 20:35 NNW 3 10 Clear CLR 62 51     67%     30.29        
Oct 18 20:15 NW 5 10 Clear CLR 63 51     67%     30.28        
Oct 18 19:55 NW 6 10 Clear CLR 62 52     70%     30.29        
Oct 18 19:35 NW 6 10 Clear CLR 62 53     72%     30.28        
Oct 18 19:15 WNW 7 10 Clear CLR 63 53     71%     30.28        
Oct 18 18:55 Calm 10 Clear CLR 64 50     60%     30.28        
Oct 18 18:35 WNW 7 10 Clear CLR 66 53     62%     30.27        
Oct 18 18:15 WNW 7 10 Clear CLR 68 51     54%     30.27        
Oct 18 17:55 NW 6 10 Clear CLR 70 51     51%   69 30.27        
Oct 18 17:35 N 6 10 Clear CLR 72 51     47%   71 30.27        
Oct 18 17:15 NNE 6 10 Clear CLR 73 52     47%   73 30.27        
Oct 18 16:55 N 6 10 Clear CLR 74 49     41%   73 30.26        
Oct 18 16:35 N 3 10 Clear CLR 73 49     42%   72 30.26        
Oct 18 16:15 N 6 10 Clear CLR 73 49     42%   72 30.27        
Oct 18 15:55 N 6 10 Clear CLR 75 48     38%   74 30.26        
Oct 18 15:35 N 8 10 Clear CLR 75 48     38%   74 30.26        
Oct 18 15:15 N 9 10 Clear CLR 76 47     35%   75 30.26        
Oct 18 14:55 N 9 10 Clear CLR 76 48     37%   76 30.26        
Oct 18 14:35 NNE 8 10 Clear CLR 77 47     35%   76 30.27        
Oct 18 14:15 NE 5 10 Clear CLR 78 46     33%   77 30.27        
Oct 18 13:55 NE 6 10 Clear CLR 76 49     39%   75 30.28        
Oct 18 13:35 N 7 10 Clear CLR 75 50     42%   74 30.28        
Oct 18 13:15 NNW 6 10 Clear CLR 75 50     42%   74 30.3        
Oct 18 12:55 N 8 10 Clear CLR 77 50     39%   76 30.3        
Oct 18 12:35 NNW 6 10 Clear CLR 76 49     40%   75 30.32        
Oct 18 12:15 NNE 6 10 Clear CLR 76 50     40%   75 30.32        
Oct 18 11:55 NE 5 10 Clear CLR 74 50     42%   73 30.33        
Oct 18 11:35 ENE 5 10 Clear CLR 71 48     44%   70 30.34        
Oct 18 11:15 N 5 10 Clear CLR 70 48     46%     30.35        
Oct 18 10:55 NE 5 10 Clear CLR 69 49     49%     30.35        
Oct 18 10:35 NNE 7 10 Clear CLR 68 48     49%     30.35        
Oct 18 10:15 NNE 6 10 Clear CLR 67 48     51%     30.35        
Oct 18 09:55 NE 5 10 Clear CLR 66 49     53%     30.35        
Oct 18 09:35 NE 5 10 Clear CLR 65 48     54%     30.35        
Oct 18 09:15 NE 6 10 Clear CLR 63 48     57%     30.35        
Oct 18 08:55 NE 6 10 Clear CLR 63 49     61%     30.35        
Oct 18 08:35 NNE 5 10 Clear CLR 60 48     65%     30.34        
Oct 18 08:15 N 3 10 Clear CLR 60 49     68%     30.34        
Oct 18 07:55 N 5 10 Clear CLR 58 49     71%     30.34        
Oct 18 07:35 N 3 10 Clear CLR 57 50     77%     30.33        
Oct 18 07:15 N 3 10 Clear CLR 55 49     81%     30.33        
Oct 18 06:55 N 3 10 Clear CLR 55 49     80%     30.32        
Oct 18 06:35 N 3 10 Clear CLR 55 49     79%     30.31        
Oct 18 06:15 Calm 10 Clear CLR 56 49     78%     30.31        
Oct 18 05:55 Calm 10 Clear CLR 56 49     77%     30.3        
Oct 18 05:35 N 3 10 Clear CLR 56 49     76%     30.29        
Oct 18 05:15 N 3 10 Clear CLR 57 49     76%     30.29        
Oct 18 04:55 Calm 10 Clear CLR 57 49     74%     30.29        
Oct 18 04:35 Calm 10 Clear CLR 57 49     73%     30.29        
Oct 18 04:15 Calm 10 Clear CLR 58 49     73%     30.28        
Oct 18 03:55 NNE 3 10 Clear CLR 58 49     72%     30.28        
Oct 18 03:35 N 3 10 Partly Cloudy SCT050 58 49     71%     30.29        
Oct 18 03:15 N 5 10 Cloudy OVC050 59 50     70%     30.29        
Oct 18 02:55 N 5 10 Cloudy OVC050 60 50     71%     30.3        
Oct 18 02:35 N 6 10 Cloudy OVC050 60 50     71%     30.29        
Oct 18 02:15 N 5 10 Cloudy OVC050 60 50     72%     30.3        
Oct 18 01:55 NNW 6 10 Cloudy OVC050 60 51     72%     30.29        
Oct 18 01:35 NNW 5 10 Cloudy OVC050 59 52     76%     30.29        
Oct 18 01:15 N 3 10 Cloudy OVC050 59 52     76%     30.29        
Oct 18 00:55 NNW 7 10 Cloudy OVC050 59 52     77%     30.29        
Oct 18 00:35 NNW 5 10 Cloudy OVC050 60 53     79%     30.29        
Oct 18 00:15 Calm 10 Cloudy OVC050 59 53     80%     30.29        
Oct 17 23:55 Calm 10 Cloudy OVC050 59 53     79%     30.29        
Oct 17 23:35 NNW 3 10 Cloudy OVC055 59 53     81%     30.3        
Oct 17 23:15 NW 3 10 Mostly Cloudy BKN055 59 52     78%     30.3        
Oct 17 22:55 NNW 3 10 Partly Cloudy SCT055 59 52     76%     30.29        
Oct 17 22:35 Calm 10 Mostly Cloudy BKN055 61 52     72%     30.29        
Oct 17 22:15 Calm 10 Cloudy OVC055 62 52     70%     30.3        
Oct 17 21:55 NNW 5 10 Cloudy OVC065 62 52     70%     30.29        
Oct 17 21:35 NNW 5 10 Clear   62 52     70%     30.29        
Oct 17 21:15 NNW 5 10 Clear   62 53     71%     30.28        
Oct 17 20:55 NNW 7 10 Clear   62 53     70%     30.28        
Oct 17 20:35 NNW 7 10 Cloudy BKN065 OVC075 62 54     73%     30.27        
Oct 17 20:15 NW 7 10 Cloudy OVC085 63 54     73%     30.28        
Oct 17 19:55 NNW 8 10 Cloudy BKN070 OVC085 63 55     75%     30.27        
Oct 17 19:35 NW 6 10 Cloudy OVC070 63 55     73%     30.27        
Oct 17 19:15 NW 8 10 Cloudy OVC070 64 55     73%     30.26        
Oct 17 18:55 NW 9 10 Cloudy OVC070 64 56     74%     30.26        
Oct 17 18:35 NW 8 10 Mostly Cloudy BKN070 65 57     76%     30.25        
Oct 17 18:15 NW 9 10 Mostly Cloudy SCT060 BKN070 65 57     75%     30.25        
Oct 17 17:55 WNW 7 10 Cloudy OVC060 67 58     74%     30.24        
Oct 17 17:35 NNW 8 10 Cloudy OVC060 67 58     73%     30.24        
Oct 17 17:15 N 6 10 Cloudy OVC060 67 58     71%     30.23        
Oct 17 16:55 NNW 9 10 Cloudy OVC060 69 58     70%     30.23        
Oct 17 16:35 N 7 10 Cloudy OVC050 69 59     72%     30.22        
Oct 17 16:15 N 7 10 Cloudy BKN049 OVC060 69 60     73%     30.22        
Oct 17 15:55 N 7 10 Cloudy BKN047 OVC060 69 60     73%     30.22        
Oct 17 15:35 N 7 10 Cloudy OVC047 68 60     75%     30.22        
Oct 17 15:15 N 8 10 Cloudy OVC045 69 60     74%     30.22        
Oct 17 14:55 NNE 7 10 Cloudy OVC045 69 60     73%     30.22        
Oct 17 14:35 N 8 10 Cloudy OVC045 68 60     75%     30.22        
Oct 17 14:15 N 7 10 Cloudy OVC045 67 60     77%     30.22        
Oct 17 13:55 NNE 7 10 Cloudy SCT013 BKN034 OVC045 67 61     80%     30.23        
Oct 17 13:35 N 7 10 Cloudy SCT013 BKN032 OVC040 67 61     79%     30.24        
Oct 17 13:15 NNW 9 10 Cloudy SCT013 BKN030 OVC037 68 61     79%     30.24        
Oct 17 12:55 NW 6 10 Cloudy SCT011 BKN031 OVC036 67 62     83%     30.25        
Oct 17 12:35 NNW 7 10 Cloudy OVC011 66 61     84%     30.26        
Oct 17 12:15 NW 9 10 Cloudy OVC011 66 61     85%     30.26        
Oct 17 11:55 N 9 10 Cloudy BKN009 OVC046 66 62     86%     30.26        
Oct 17 11:35 NNW 7 10 Cloudy OVC009 65 62     88%     30.26        
Oct 17 11:15 NW 7 10 Cloudy BKN009 OVC042 66 62     87%     30.26        
Oct 17 10:55 NW 7 10 Cloudy SCT009 OVC040 65 61     86%     30.25        
Oct 17 10:35 N 7 10 Cloudy SCT009 OVC040 66 61     84%     30.25        
Oct 17 10:15 N 6 10 Cloudy OVC040 65 61     86%     30.25        
Oct 17 09:55 N 8 10 Cloudy SCT010 OVC040 65 61     87%     30.25        
Oct 17 09:35 NNW 7 10 Cloudy BKN008 OVC040 65 62     89%     30.25        
Oct 17 09:15 NW 7 10 Cloudy OVC008 64 62     93%     30.25        
Oct 17 08:55 NW 6 10 Cloudy OVC008 64 62     93%     30.24        
Oct 17 08:35 N 7 10 Cloudy OVC008 63 62     95%     30.22        
Oct 17 08:15 NNW 7 10 Cloudy OVC008 63 62     96%     30.22        
Oct 17 07:55 NW 6 10 Cloudy OVC008 63 62     97%     30.21        
Oct 17 07:35 NW 7 10 Cloudy BKN008 OVC040 63 62     97%     30.2        
Oct 17 07:15 NNW 6 10 Cloudy SCT008 BKN040 OVC047 63 62     97%     30.2        
Oct 17 06:55 NNW 6 10 Mostly Cloudy BKN045 BKN050 63 62     97%     30.19        
Oct 17 06:35 Calm 10 Cloudy SCT010 BKN040 OVC047 63 61     96%     30.19        
Oct 17 06:15 NW 6 10 Cloudy SCT010 SCT019 OVC040 63 62     97%     30.19        
Oct 17 05:55 NW 6 10 Cloudy BKN019 OVC040 63 62     97%     30.19        
Oct 17 05:35 NW 6 10 Cloudy BKN019 BKN026 OVC040 63 62     97%     30.19        
Oct 17 05:15 NNW 6 10 Light Rain SCT009 OVC015 63 62     97%     30.18        
Oct 17 04:55 NNW 8 10 Cloudy OVC007 63 62     97%     30.18        
Oct 17 04:35 NW 8 10 Cloudy OVC007 63 62     98%     30.17        
Oct 17 04:15 NW 8 10 Cloudy OVC007 63 63     99%     30.17        
Oct 17 03:55 NNW 9 10 Cloudy OVC007 63 63     99%     30.16        
Oct 17 03:35 NW 8 10 Cloudy SCT007 OVC015 63 63     99%     30.15        
Oct 17 03:15 NW 6 10 Cloudy SCT007 OVC015 63 63     100%     30.15        
Oct 17 02:55 NNW 6 10 Cloudy SCT007 BKN015 OVC080 63 63     100%     30.15        
Oct 17 02:35 Calm 10 Cloudy SCT007 SCT015 OVC080 63 63     100%     30.16        
Oct 17 02:15 NNW 7 10 Cloudy SCT034 BKN039 OVC080 63 63     99%     30.15        
Oct 17 01:55 NNW 7 10 Cloudy SCT017 BKN039 OVC050 63 63     99%     30.15        
Oct 17 01:35 NNW 7 10 Cloudy SCT017 SCT037 OVC050 63 63     99%     30.15        
Oct 17 01:15 NW 7 10 Cloudy SCT044 OVC050 63 63     100%     30.15        
Oct 17 00:55 NW 5 10 Cloudy BKN044 OVC050 63 63     100%     30.14        
Oct 17 00:35 Calm 10 Mostly Cloudy BKN046 63 63     100%     30.14        
Oct 17 00:15 NW 3 10 Clear CLR 63 63     100%     30.14        
Oct 16 23:55 NW 3 10 Clear CLR 63 63     99%     30.14        
Oct 16 23:35 Calm 10 Clear CLR 63 62     96%     30.14        
Oct 16 22:55 Calm 10 Clear CLR 63 63     98%     30.14        
Oct 16 22:35 Calm 10 Clear CLR 64 63     97%     30.14        
Oct 16 22:15 NW 5 10 Partly Cloudy SCT039 64 63     95%     30.16        
Oct 16 21:55 NW 3 10 Partly Cloudy SCT039 64 63     94%     30.15        
Oct 16 21:35 WNW 8 10 Partly Cloudy SCT021 65 63     93%     30.15        
Oct 16 21:15 WNW 9 10 Mostly Cloudy BKN019 66 63     92%     30.14        
Oct 16 20:55 WNW 6 10 Cloudy OVC017 66 63     92%     30.14        
Oct 16 20:35 NNE 3 10 Cloudy OVC013 66 63     93%     30.14        
Oct 16 20:15 N 7 10 Cloudy OVC013 65 63     93%     30.13        
Oct 16 19:55 NNW 7 10 Cloudy OVC013 65 63     93%     30.13        
Oct 16 19:35 N 9 10 Clear   65 63     92%     30.14        
Oct 16 19:15 NW 11 10 Clear   66 63     92%     30.14        
Oct 16 18:55 NNW 13 10 Clear   66 63     88%     30.13        
Oct 16 18:35 NW 13 10 Cloudy BKN018 OVC049 67 63     86%     30.12        
Oct 16 18:15 NNW 11 10 Cloudy BKN020 OVC049 69 63     83%     30.12        
Oct 16 17:55   10 Cloudy OVC022 71 65     81%   71 30.11        
Oct 16 17:35   10 Mostly Cloudy BKN022 73 66     79%   73 30.1        
Oct 16 17:15 NW 14 10 Clear CLR 76 67     75%   76 30.09        
Oct 16 16:55 NW 10 10 Partly Cloudy SCT021 SCT065 77 67     73%   77 30.09        
Oct 16 16:35 NW 7 10 Mostly Cloudy BKN021 79 68     70%   80 30.08        
Oct 16 16:15 NNW 8 10 Partly Cloudy SCT021 SCT065 81 69     68%   84 30.08        
Oct 16 15:55 NNW 3 10 Clear CLR 82 69     64%   85 30.07        
Oct 16 15:35 Calm 10 Clear CLR 82 69     64%   85 30.07        
Oct 16 15:15 Calm 10 Clear CLR 80 68     67%   83 30.07        
Oct 16 14:55 Calm 10 Partly Cloudy SCT018 80 68     68%   83 30.07        
Oct 16 14:35 Calm 10 Mostly Cloudy BKN016 79 68     69%   82 30.08        
Oct 16 14:15 NNW 5 10 Cloudy OVC016 77 68     72%   78 30.09        
Oct 16 13:55 N 3 10 Cloudy OVC016 80 68     68%   82 30.1        
Oct 16 13:35 W 6 10 Cloudy OVC014 78 67     69%   78 30.11        
Oct 16 13:15 Calm 10 Cloudy OVC014 77 67     71%   78 30.11        
Oct 16 12:55 WNW 5 10 Cloudy OVC014 78 67     69%   79 30.12        
Oct 16 12:35 Calm 10 Cloudy OVC012 77 67     72%   78 30.12        
Oct 16 12:15 Calm 10 Cloudy OVC012 76 67     75%   77 30.13        
Notice The following observation data may not be complete
May 15 12:15   10 Partly Cloudy SCT075          %              
May 15 07:35 ESE 5 10 Clear CLR 72 66     83%   72 29.96        
May 15 04:35 E 3 10 Clear   68 66     93%     29.94        
May 15 00:35   10 Clear CLR 72 66     82%   73 29.92        
May 14 23:55 SSE 3 10 Clear CLR 74 66     76%   75 29.93        
May 13 20:35 Calm 10 Clear CLR 78 66     68%   79 30.01        
May 13 15:35 NNW 3 10 Partly Cloudy SCT070 92 61     36%   92 30.03        
May 13 15:15 W 7 10 Clear CLR 91 60     36%   91 30.04        
May 13 14:35 N 6 10 Clear CLR 91 60     35%   91 30.06        
May 13 08:15 NNW 6 10 Clear CLR 77 65     67%   78 30.12        
May 13 06:15 Calm 10 Clear CLR 61 61     99%     30.1        
May 13 04:55 Calm 10 Clear CLR 62 62     100%     30.06        
May 12 21:35 Calm 10 Clear CLR 72 59     65%   71 30.08        
May 12 17:15 SE 3 10 Clear CLR 89 54     30%   87 30.06        
May 12 15:55 SSE 9 10 Clear   90 53     29%   87 30.08        
May 12 05:35 Calm 10 Clear CLR 58 58     99%     30.12        
May 12 01:55 Calm 10 Clear CLR 62 61     97%     30.07        
Notice The following observation data may not be complete
May 12 00:35   10 Clear CLR          %              
May 11 23:55 SSW 8 10 Clear CLR 66 61     84%     30.09        
May 11 22:15 Calm 10 Clear CLR 69 62     78%     30.08        
Notice The following observation data may not be complete
May 11 11:15   10 Clear CLR          %              
Jun 11 22:55   10 Clear CLR 73 73     100%   75 30.11        
Notice The following observation data may not be complete
Jun 11 18:15   7 Light Rain SCT046 SCT065 OVC110          %         0    
Notice The following observation data may not be complete
Jun 11 17:35   10 Light Rain SCT027 SCT032 OVC048   72      %     30.07        
Jun 11 16:55 ESE 7 10 Mostly Cloudy BKN048 BKN055 89 71     55%   94 30.04        
Jun 11 15:15 E 7 10 Partly Cloudy SCT050 88 69     52%   93 30.07        
Notice The following observation data may not be complete
Jun 11 14:35   10 Mostly Cloudy BKN050          %              
Jun 11 10:15 SSE 10 10 Clear CLR 82 67     60%   85 30.13        
Jun 10 10:15 SSE 3 10 Clear CLR 80 67     64%   83 30.06        
Jun 10 08:55   0.25 Cloudy OVC080 76 68     76%   77 30.06        
Jun 10 08:35 Calm 0.25 Cloudy OVC080 74 68     81%   75 30.05        
Jun 10 03:55 Calm 10 Partly Cloudy SCT075 64 64     100%     29.98        
Jun 10 02:35 Calm 10 Cloudy SCT065 OVC075 64 64     100%     29.98        
Jun 10 01:55 S 7 10 Cloudy OVC075 65 64     97%     29.98        
Notice The following observation data may not be complete
Jun 09 23:35   10 Clear CLR          %              
Notice The following observation data may not be complete
Jun 09 20:35   10 Clear CLR          %              
Jun 09 16:15 Calm 10 Clear CLR 82 57     43%   82 29.92        
Jun 09 11:35   10 Clear CLR 79 60     51%   79 29.98        
Jun 09 03:35 Calm 10 Clear CLR 60 59     97%     29.89        
Jun 09 02:55 WNW 3 10 Clear   60 60     99%     29.9        
Jun 09 02:35 Calm 10 Clear CLR 61 60     97%     29.9        
Jun 09 00:15 NNW 6 10 Clear CLR 65 60     83%     29.91        
Jun 08 23:55 NNW 3 10 Clear CLR 65 60     85%     29.91        
Jun 08 16:50 NW 6 10 Clear CLR 80 57     45%   80 29.86        
Jun 08 13:30 WNW 11 10 Partly Cloudy SCT050 79 59     50%   79 29.9        
Jun 08 07:55 N 3 10 Clear   67 58     71%     29.92        
Jun 08 03:15 N 6 10 Clear CLR 64 55     73%     29.84        
Jun 07 17:50   10 Clear CLR 82 59     47%   82 29.79        
Jun 07 08:15 N 7 10 Clear CLR 71 64     78%   72 29.79        
Jun 06 14:55 NE 3 10 Rain SCT005 BKN047 OVC070 70 70     99%   72 29.72   1    
Jun 06 09:15   10 Cloudy OVC005 75 73     94%   76 29.77        
Jun 05 19:35 SSE 5 10 Light Rain SCT050 SCT065 BKN095 70 70     99%     29.77   0